Time[GMT],air_temperature[C](-3m),wind_speed[m/s](-4m),wind_gust[m/s](-4m),barometric_pressure[millibars](-3m),wind_2_direction[degrees_true](-4m),wind_2_gust[m/s](-4m),wind_2_gust_1s[m/s](-4m),wind_2_min[m/s](-4m),wind_2_percent_good[1](-4m),wind_2_speed[m/s](-4m),wind_direction[degrees_true](-4m),wind_gust_1s[m/s](-4m),wind_min[m/s](-4m)
2015-04-16 12:00,26.2,,,1017.27,62.94,7.55,8.93,3.51,1.00,6.23,,,
2015-04-16 13:00,26.3,,,1017.87,56.83,8.06,9.16,4.10,1.00,6.09,,,
2015-04-16 14:00,26.4,,,1018.05,66.70,7.89,9.27,3.81,1.00,6.50,,,
2015-04-16 15:00,26.4,,,1017.93,74.60,8.30,9.72,4.21,1.00,6.76,,,
2015-04-16 16:00,26.5,,,1017.39,72.70,7.87,8.85,4.23,1.00,6.74,,,
2015-04-16 17:00,26.5,,,1016.91,80.20,8.10,9.39,3.66,1.00,6.68,,,
2015-04-16 18:00,26.4,,,1016.07,78.90,8.32,9.97,4.22,1.00,7.02,,,
2015-04-16 19:00,26.5,,,1015.29,78.50,8.27,9.74,3.48,1.00,6.92,,,
2015-04-16 20:00,26.5,,,1014.81,77.90,9.25,10.42,4.57,1.00,7.57,,,
2015-04-16 21:00,26.6,,,1014.63,74.80,9.41,11.26,4.03,1.00,7.67,,,
2015-04-16 22:00,26.5,,,1014.93,74.20,9.65,11.21,4.87,1.00,8.00,,,
2015-04-16 23:00,26.4,,,1015.47,70.70,9.08,10.57,3.69,1.00,7.25,,,
2015-04-17 00:00,26.4,,,1015.83,67.40,10.20,11.54,5.04,1.00,8.22,,,
2015-04-17 01:00,26.4,,,1016.49,64.32,9.14,9.83,3.97,1.00,7.12,,,
2015-04-17 02:00,26.4,,,1017.03,68.70,8.63,9.75,4.23,1.00,7.13,,,
2015-04-17 03:00,26.3,,,1017.27,57.41,8.80,9.76,3.99,1.00,7.14,,,
2015-04-17 04:00,,,,,,,,,,,,,
2015-04-17 05:00,26.1,,,1016.31,56.45,9.79,10.75,4.60,1.00,7.93,,,
2015-04-17 06:00,26.1,,,1015.65,63.22,8.26,9.61,3.65,1.00,6.49,,,
2015-04-17 07:00,23.4,,,1015.47,73.10,12.77,13.92,4.55,1.00,8.28,,,
2015-04-17 08:00,25.8,,,1014.93,51.19,8.26,9.52,3.60,1.00,6.48,,,
2015-04-17 09:00,25.8,,,1015.29,62.12,9.32,10.56,4.83,1.00,7.67,,,
2015-04-17 10:00,25.8,,,1015.47,69.90,8.90,10.61,4.45,1.00,7.34,,,
2015-04-17 11:00,25.9,,,1016.01,70.30,8.31,9.49,3.99,1.00,6.90,,,
2015-04-17 12:00,24.7,,,1017.03,119.40,9.66,11.11,4.09,1.00,7.81,,,
2015-04-17 13:00,24.9,,,1017.57,83.90,9.77,11.01,1.58,1.00,8.24,,,
2015-04-17 14:00,25.3,,,1017.51,84.10,8.23,9.91,4.50,1.00,7.07,,,
2015-04-17 15:00,25.3,,,1017.63,74.50,9.69,10.26,4.86,1.00,7.79,,,
2015-04-17 16:00,25.5,,,1016.97,75.10,9.11,10.18,4.36,1.00,7.53,,,
2015-04-17 17:00,24.9,,,1016.73,83.90,9.69,11.21,5.23,1.00,8.20,,,
2015-04-17 18:00,25.0,,,1015.95,70.70,9.90,10.22,4.49,1.00,7.62,,,
2015-04-17 19:00,25.3,,,1015.35,77.50,9.07,11.08,4.22,1.00,7.46,,,
2015-04-17 20:00,25.9,,,1014.93,72.20,8.35,10.41,3.87,1.00,6.85,,,
2015-04-17 21:00,26.2,,,1014.87,82.10,9.93,11.31,4.93,1.00,7.92,,,
2015-04-17 22:00,26.1,,,1014.99,72.00,9.20,11.02,4.18,1.00,7.45,,,
2015-04-17 23:00,26.0,,,1015.29,67.20,8.52,9.71,4.15,1.00,6.96,,,
2015-04-18 00:00,25.9,,,1015.65,67.30,9.20,10.83,4.42,1.00,7.27,,,
2015-04-18 01:00,26.2,,,1016.25,81.20,9.53,10.96,4.94,1.00,8.10,,,
2015-04-18 02:00,26.4,,,1016.67,79.00,9.69,11.01,3.49,1.00,7.96,,,
2015-04-18 03:00,26.1,,,1016.85,77.60,9.44,11.03,4.60,1.00,7.84,,,
2015-04-18 04:00,26.1,,,1016.73,71.10,8.37,9.58,4.47,1.00,6.99,,,
2015-04-18 05:00,26.5,,,1016.01,76.60,8.86,9.78,4.15,1.00,7.13,,,
2015-04-18 06:00,26.4,,,1015.59,78.80,9.06,10.34,4.78,1.00,7.55,,,
2015-04-18 07:00,26.4,,,1014.93,87.00,8.40,9.95,4.01,1.00,7.15,,,
2015-04-18 08:00,23.7,,,1015.53,131.80,11.62,13.54,6.35,1.00,10.00,,,
2015-04-18 09:00,25.2,,,1015.71,89.40,4.96,6.18,1.52,1.00,3.92,,,
2015-04-18 10:00,26.4,,,1015.89,89.30,5.92,7.32,2.97,1.00,5.14,,,
2015-04-18 11:00,25.5,,,1016.31,73.70,9.52,10.51,4.44,1.00,7.85,,,
2015-04-18 12:00,26.4,,,1016.79,89.50,7.87,9.02,3.01,1.00,6.36,,,
2015-04-18 13:00,26.8,,,1017.03,102.80,7.68,8.64,3.55,1.00,6.34,,,
2015-04-18 14:00,26.8,,,1017.15,104.20,8.15,8.97,3.63,1.00,6.62,,,
2015-04-18 15:00,26.8,,,1017.27,106.40,7.53,8.96,4.16,1.00,6.31,,,
2015-04-18 16:00,26.8,,,1016.85,99.00,7.97,9.37,2.99,1.00,6.57,,,
2015-04-18 17:00,26.7,,,1016.31,102.30,7.71,8.49,4.36,1.00,6.40,,,
2015-04-18 18:00,26.8,,,1015.65,99.20,7.76,8.26,3.50,1.00,6.17,,,
2015-04-18 19:00,26.9,,,1015.05,99.50,7.10,8.82,2.92,1.00,6.02,,,
2015-04-18 20:00,26.8,,,1014.63,94.90,7.67,8.85,3.88,1.00,6.46,,,
2015-04-18 21:00,26.8,,,1014.15,94.60,8.26,9.13,3.56,1.00,6.58,,,
2015-04-18 22:00,26.8,,,1014.51,101.30,8.14,9.35,4.13,1.00,6.83,,,
2015-04-18 23:00,26.7,,,1014.99,98.50,8.11,9.48,4.10,1.00,6.78,,,
2015-04-19 00:00,26.6,,,1015.59,96.90,7.65,8.95,2.85,1.00,6.40,,,
2015-04-19 01:00,26.7,,,1015.95,95.00,8.08,9.33,4.06,1.00,6.59,,,
2015-04-19 02:00,26.6,,,1016.19,101.80,8.39,10.03,4.40,1.00,7.10,,,
2015-04-19 03:00,26.6,,,1016.25,92.70,8.51,10.51,4.75,1.00,7.10,,,
2015-04-19 04:00,26.5,,,1016.01,94.70,7.75,9.24,3.93,1.00,6.43,,,
2015-04-19 05:00,26.5,,,1015.29,96.10,8.40,10.07,3.60,1.00,6.86,,,
2015-04-19 06:00,26.5,,,1014.69,101.40,7.67,9.27,3.41,1.00,6.46,,,
2015-04-19 07:00,26.4,,,1014.15,104.40,7.09,8.53,3.46,1.00,5.98,,,
2015-04-19 08:00,26.4,,,1014.15,98.80,7.94,9.49,3.40,1.00,6.53,,,
2015-04-19 09:00,26.4,,,1014.63,97.80,6.52,7.65,3.20,1.00,5.43,,,
2015-04-19 10:00,26.4,,,1015.05,101.10,7.38,8.18,3.88,1.00,6.08,,,
2015-04-19 11:00,26.5,,,1015.53,100.00,7.66,9.02,3.33,1.00,6.24,,,
2015-04-19 12:00,26.7,,,1016.07,97.20,7.19,8.49,0.79,1.00,5.90,,,
2015-04-19 13:00,26.7,,,1016.55,92.20,7.22,8.43,3.57,1.00,6.23,,,
2015-04-19 14:00,26.8,,,1016.55,98.40,7.74,9.89,3.14,1.00,6.39,,,
2015-04-19 15:00,26.8,,,1016.55,102.40,7.41,8.90,3.63,1.00,6.09,,,
2015-04-19 16:00,26.8,,,1016.31,100.70,7.24,8.52,2.94,1.00,5.85,,,
2015-04-19 17:00,26.9,,,1015.71,97.60,6.76,8.16,2.98,1.00,5.63,,,
2015-04-19 18:00,27.1,,,1014.81,101.50,6.22,7.76,2.91,1.00,5.17,,,
2015-04-19 19:00,27.0,,,1014.39,100.30,6.77,7.93,2.89,1.00,5.79,,,
2015-04-19 20:00,27.1,,,1014.03,92.00,6.48,7.63,3.17,1.00,5.31,,,
2015-04-19 21:00,27.1,,,1013.85,101.30,6.70,7.94,3.29,1.00,5.70,,,
2015-04-19 22:00,27.0,,,1013.73,103.30,6.77,8.04,2.84,1.00,5.87,,,
2015-04-19 23:00,26.8,,,1014.15,91.80,6.84,8.11,3.35,1.00,5.80,,,
2015-04-20 00:00,26.9,,,1014.69,96.10,6.81,7.88,3.42,1.00,5.74,,,
2015-04-20 01:00,26.8,,,1014.81,95.10,7.37,8.64,3.63,1.00,6.39,,,
2015-04-20 02:00,26.9,,,1014.99,95.70,7.60,8.96,3.77,1.00,6.38,,,
2015-04-20 03:00,26.8,,,1015.11,101.20,8.31,9.15,3.70,1.00,6.59,,,
2015-04-20 04:00,26.8,,,1014.69,105.90,7.94,9.08,4.39,1.00,6.56,,,
2015-04-20 05:00,26.7,,,1014.21,107.40,8.36,10.57,4.23,1.00,7.12,,,
2015-04-20 06:00,26.7,,,1014.09,104.30,7.97,9.13,3.91,1.00,6.63,,,
2015-04-20 07:00,26.6,,,1013.85,106.00,7.98,9.41,4.00,1.00,6.54,,,
2015-04-20 08:00,26.5,,,1014.21,107.80,6.91,8.79,3.44,1.00,5.80,,,
2015-04-20 09:00,26.6,,,1014.69,101.20,6.86,7.73,3.22,1.00,5.48,,,
2015-04-20 10:00,26.5,,,1014.99,96.50,6.73,8.08,3.47,1.00,5.58,,,
2015-04-20 11:00,26.7,,,1015.53,96.40,7.03,8.54,3.47,1.00,5.82,,,
2015-04-20 12:00,26.8,,,1016.31,98.60,7.74,8.91,3.86,1.00,6.54,,,
2015-04-20 13:00,26.8,,,1016.85,101.80,7.56,8.86,3.50,1.00,6.20,,,
2015-04-20 14:00,26.8,,,1017.03,86.50,7.56,8.89,3.64,1.00,6.19,,,
2015-04-20 15:00,26.9,,,1017.27,93.00,7.81,8.90,3.25,1.00,6.20,,,
2015-04-20 16:00,26.9,,,1016.79,91.90,6.55,8.01,2.89,1.00,5.47,,,
2015-04-20 17:00,26.8,,,1016.07,92.10,7.01,8.10,3.56,1.00,5.66,,,
2015-04-20 18:00,26.8,,,1015.17,90.70,6.89,8.17,3.43,1.00,5.76,,,
2015-04-20 19:00,26.9,,,1014.51,91.30,6.58,7.29,3.54,1.00,5.37,,,
2015-04-20 20:00,,,,,,,,,,,,,
2015-04-20 21:00,27.0,,,1014.27,95.70,6.63,7.28,3.40,1.00,5.40,,,
2015-04-20 22:00,26.9,,,1014.51,108.30,6.92,7.59,2.93,1.00,5.57,,,
2015-04-20 23:00,26.8,,,1014.69,98.20,6.36,7.77,3.00,1.00,5.40,,,
2015-04-21 00:00,26.8,,,1015.11,101.60,7.64,8.86,4.01,1.00,6.31,,,
2015-04-21 01:00,26.7,,,1015.53,93.10,6.94,8.56,2.94,1.00,5.83,,,
2015-04-21 02:00,26.7,,,1015.65,92.90,7.98,8.86,4.10,1.00,6.71,,,
2015-04-21 03:00,26.6,,,1016.07,92.60,7.74,8.60,3.81,1.00,6.22,,,
2015-04-21 04:00,26.5,,,1015.89,92.60,7.91,9.27,3.83,1.00,6.61,,,
2015-04-21 05:00,26.4,,,1015.17,88.00,8.55,9.95,3.99,1.00,7.22,,,
2015-04-21 06:00,26.3,,,1014.81,90.00,8.17,9.62,4.33,1.00,6.78,,,
2015-04-21 07:00,26.3,,,1014.39,96.60,8.49,9.78,3.87,1.00,6.98,,,
2015-04-21 08:00,26.2,,,1014.63,94.80,7.65,9.43,3.52,1.00,6.31,,,
2015-04-21 09:00,26.2,,,1015.17,97.40,7.65,9.56,3.43,1.00,6.41,,,
2015-04-21 10:00,26.2,,,1015.89,93.70,7.38,9.28,3.64,1.00,5.97,,,
2015-04-21 11:00,26.5,,,1016.13,89.70,7.48,8.58,3.55,1.00,6.18,,,
2015-04-21 12:00,26.6,,,1016.85,82.50,7.03,8.28,2.98,1.00,5.62,,,
2015-04-21 13:00,26.5,,,1017.39,91.10,6.32,7.62,3.30,1.00,5.36,,,
2015-04-21 14:00,26.6,,,1017.51,85.10,6.88,8.90,3.41,1.00,5.84,,,
2015-04-21 15:00,26.1,,,1017.39,87.60,8.47,10.28,4.25,1.00,7.03,,,
2015-04-21 16:00,26.7,,,1017.03,88.90,8.45,9.84,4.53,1.00,6.99,,,
2015-04-21 17:00,26.6,,,1016.49,89.20,7.40,8.40,3.30,1.00,5.97,,,
2015-04-21 18:00,26.7,,,1015.47,89.10,7.18,8.18,3.03,1.00,5.73,,,
2015-04-21 19:00,26.7,,,1014.99,85.00,6.91,8.29,3.01,1.00,5.51,,,
2015-04-21 20:00,26.6,,,1014.45,85.70,7.00,7.69,0.79,1.00,5.51,,,
2015-04-21 21:00,26.6,,,1014.63,86.80,6.61,7.28,2.82,1.00,5.28,,,
2015-04-21 22:00,26.5,,,1014.57,80.60,7.36,9.30,2.78,1.00,6.07,,,
2015-04-21 23:00,26.3,,,1015.05,83.30,7.84,10.10,3.54,1.00,6.14,,,
2015-04-22 00:00,26.3,,,1015.17,87.90,8.24,9.44,3.66,1.00,6.50,,,
2015-04-22 01:00,26.3,,,1015.65,83.80,8.06,9.21,3.86,1.00,6.59,,,
2015-04-22 02:00,26.3,,,1016.07,76.10,8.31,9.80,4.03,1.00,6.54,,,
2015-04-22 03:00,26.3,,,1015.71,80.40,9.10,10.49,4.43,1.00,7.09,,,
2015-04-22 04:00,26.3,,,1015.35,80.00,8.42,9.43,4.09,1.00,7.01,,,
2015-04-22 05:00,26.3,,,1014.87,79.90,8.48,9.96,4.03,1.00,7.09,,,
2015-04-22 06:00,26.2,,,1013.97,87.60,8.59,9.81,4.75,1.00,7.29,,,
2015-04-22 07:00,26.2,,,1013.67,90.90,8.76,9.89,3.89,1.00,7.06,,,
2015-04-22 08:00,26.2,,,1014.15,83.50,7.79,8.76,4.01,1.00,6.28,,,
2015-04-22 09:00,26.2,,,1014.51,79.00,7.90,8.87,3.18,1.00,6.39,,,
2015-04-22 10:00,25.2,,,1014.99,52.75,6.38,7.10,2.20,1.00,4.67,,,
2015-04-22 11:00,25.6,,,1015.41,73.70,9.02,10.20,2.95,1.00,6.68,,,
2015-04-22 12:00,26.5,,,1015.59,89.70,8.86,10.36,4.48,1.00,7.16,,,
2015-04-22 13:00,26.8,,,1015.83,98.30,9.07,10.84,3.86,1.00,7.38,,,
2015-04-22 14:00,26.7,,,1015.95,108.00,9.39,11.17,4.73,1.00,7.66,,,
2015-04-22 15:00,26.6,,,1015.41,105.60,9.44,10.51,4.51,1.00,7.78,,,
2015-04-22 16:00,26.7,,,1015.29,102.10,8.97,10.37,3.25,1.00,7.20,,,
2015-04-22 17:00,26.8,,,1014.87,90.80,7.93,9.31,3.81,1.00,6.65,,,
2015-04-22 18:00,26.8,,,1013.97,97.90,7.90,9.46,4.07,1.00,6.42,,,
2015-04-22 19:00,26.8,,,1013.31,95.80,7.47,9.21,3.25,1.00,5.93,,,
2015-04-22 20:00,26.8,,,1013.01,97.70,7.15,8.41,3.39,1.00,5.91,,,
2015-04-22 21:00,27.0,,,1013.19,106.40,7.12,8.10,2.67,1.00,5.79,,,
2015-04-22 22:00,26.9,,,1013.61,96.60,6.56,8.04,2.69,1.00,5.46,,,
2015-04-22 23:00,26.7,,,1014.03,98.20,7.05,8.49,2.90,1.00,5.64,,,
2015-04-23 00:00,26.6,,,1014.57,90.60,8.10,9.60,4.06,1.00,6.71,,,
2015-04-23 01:00,26.6,,,1015.29,83.50,7.90,8.99,3.35,1.00,6.22,,,
2015-04-23 02:00,26.6,,,1015.53,78.00,7.28,8.71,3.47,1.00,6.22,,,
2015-04-23 03:00,26.4,,,1015.23,75.70,7.95,9.52,4.08,1.00,6.75,,,
2015-04-23 04:00,26.3,,,1014.81,71.90,8.21,9.97,4.16,1.00,6.82,,,
2015-04-23 05:00,26.3,,,1014.09,78.80,7.81,9.08,4.12,1.00,6.57,,,
2015-04-23 06:00,26.2,,,1013.43,85.00,8.98,10.37,4.35,1.00,7.31,,,
2015-04-23 07:00,26.2,,,1012.83,93.80,8.27,9.91,4.13,1.00,6.79,,,
2015-04-23 08:00,26.2,,,1012.77,114.30,8.62,10.58,4.01,1.00,7.06,,,
2015-04-23 09:00,26.4,,,1013.07,114.20,7.94,9.24,3.80,1.00,6.77,,,
2015-04-23 10:00,26.5,,,1013.31,116.70,8.07,9.83,4.05,1.00,6.67,,,
2015-04-23 11:00,26.6,,,1013.85,106.50,6.75,8.11,2.42,1.00,5.54,,,
2015-04-23 12:00,26.9,,,1014.51,111.60,6.08,7.37,2.51,1.00,4.88,,,
2015-04-23 13:00,27.0,,,1014.93,116.70,6.37,7.38,2.90,1.00,5.30,,,
2015-04-23 14:00,27.2,,,1015.83,112.70,4.42,5.56,1.53,1.00,3.41,,,
2015-04-23 15:00,27.0,,,1015.53,130.40,4.95,6.27,2.16,1.00,4.18,,,
2015-04-23 16:00,27.1,,,1015.17,120.00,5.04,6.16,1.89,1.00,4.03,,,
2015-04-23 17:00,27.2,,,1014.87,118.70,4.58,5.35,1.58,1.00,3.59,,,
2015-04-23 18:00,27.3,,,1014.45,119.90,3.93,5.04,1.46,1.00,3.17,,,
2015-04-23 19:00,27.3,,,1013.67,87.10,3.51,4.52,1.41,1.00,2.91,,,
2015-04-23 20:00,27.3,,,1013.43,109.30,4.11,4.91,1.36,1.00,3.29,,,
2015-04-23 21:00,27.1,,,1013.13,103.20,4.65,5.78,1.77,1.00,3.68,,,
2015-04-23 22:00,27.1,,,1013.01,120.50,4.96,5.80,2.44,1.00,4.14,,,
2015-04-23 23:00,27.0,,,1013.07,120.70,6.40,7.71,3.09,1.00,5.35,,,
2015-04-24 00:00,26.9,,,1013.79,111.50,6.12,7.61,3.28,1.00,5.25,,,
2015-04-24 01:00,27.0,,,1014.51,103.00,4.92,6.10,1.64,1.00,3.93,,,
2015-04-24 02:00,26.9,,,1014.63,97.90,5.25,6.08,2.63,1.00,4.36,,,
2015-04-24 03:00,26.9,,,1014.69,104.00,4.65,5.58,2.22,1.00,3.95,,,
2015-04-24 04:00,26.9,,,1014.09,105.80,4.95,6.05,2.39,1.00,4.01,,,
2015-04-24 05:00,26.7,,,1013.31,107.20,5.45,6.36,2.18,1.00,4.40,,,
2015-04-24 06:00,26.6,,,1012.95,111.20,5.39,6.29,2.58,1.00,4.35,,,
2015-04-24 07:00,26.6,,,1012.95,112.70,4.41,5.52,1.63,1.00,3.68,,,
2015-04-24 08:00,26.5,,,1013.01,130.00,4.33,5.16,1.43,1.00,3.60,,,
2015-04-24 09:00,26.6,,,1013.31,134.60,4.33,5.14,1.85,1.00,3.62,,,
2015-04-24 10:00,26.6,,,1013.73,124.30,4.57,5.24,2.33,1.00,3.81,,,
2015-04-24 11:00,27.1,,,1014.09,124.90,3.83,4.57,1.63,1.00,3.06,,,
2015-04-24 12:00,26.9,,,1014.27,131.00,4.83,5.43,2.55,1.00,3.98,,,
2015-04-24 13:00,27.1,,,1014.57,139.50,5.35,6.00,2.39,1.00,4.37,,,
2015-04-24 14:00,27.3,,,1014.75,128.20,4.01,4.74,1.40,1.00,3.27,,,
2015-04-24 15:00,27.4,,,1014.81,149.00,6.23,7.48,3.54,1.00,5.43,,,
2015-04-24 16:00,27.4,,,1014.75,139.00,5.17,6.16,2.27,1.00,4.24,,,
2015-04-24 17:00,27.4,,,1014.15,135.90,5.11,5.83,2.31,1.00,3.87,,,
2015-04-24 18:00,27.4,,,1013.13,139.40,4.93,5.75,1.89,1.00,4.25,,,
2015-04-24 19:00,27.5,,,1012.59,153.80,5.10,5.72,2.40,1.00,4.25,,,
2015-04-24 20:00,27.5,,,1012.53,246.50,3.25,4.03,0.50,1.00,2.44,,,
2015-04-24 21:00,27.9,,,1012.65,238.00,3.46,4.26,0.25,1.00,1.74,,,
2015-04-24 22:00,28.0,,,1012.71,88.30,1.65,2.21,0.05,1.00,0.92,,,
2015-04-24 23:00,27.0,,,1012.89,122.70,2.54,3.68,0.49,1.00,1.94,,,
2015-04-25 00:00,27.1,,,1013.79,155.20,1.77,2.88,0.08,1.00,1.31,,,
2015-04-25 01:00,27.2,,,1014.03,140.90,4.36,5.26,1.76,1.00,3.51,,,
2015-04-25 02:00,27.1,,,1014.21,135.80,4.53,5.39,0.79,1.00,3.75,,,
2015-04-25 03:00,27.0,,,1014.33,154.80,4.07,5.13,1.94,1.00,3.52,,,
2015-04-25 04:00,26.8,,,1014.09,152.10,3.55,4.85,1.13,1.00,2.91,,,
2015-04-25 05:00,26.7,,,1013.61,147.60,3.26,4.09,1.12,1.00,2.47,,,
2015-04-25 06:00,26.6,,,1013.19,144.70,3.15,3.89,0.73,1.00,2.39,,,
2015-04-25 07:00,26.6,,,1012.89,131.40,3.33,3.98,1.39,1.00,2.69,,,
2015-04-25 08:00,26.5,,,1012.95,130.40,3.58,4.37,1.34,1.00,2.81,,,
2015-04-25 09:00,26.5,,,1013.49,117.30,4.06,4.84,1.76,1.00,3.26,,,
2015-04-25 10:00,26.5,,,1013.67,117.60,4.67,5.42,1.79,1.00,3.72,,,
2015-04-25 11:00,26.8,,,1014.33,115.80,4.78,5.34,2.50,1.00,3.88,,,
2015-04-25 12:00,27.0,,,1014.69,116.70,3.89,4.71,1.98,1.00,3.17,,,
2015-04-25 13:00,27.2,,,1015.17,120.30,3.73,4.38,1.67,1.00,3.07,,,
2015-04-25 14:00,27.2,,,1014.81,140.20,4.60,5.07,1.66,1.00,3.38,,,
2015-04-25 15:00,27.3,,,1014.87,140.90,4.35,5.45,1.89,1.00,3.36,,,
2015-04-25 16:00,27.4,,,1014.63,122.80,3.80,4.62,1.08,1.00,3.12,,,
2015-04-25 17:00,27.5,,,1013.91,120.10,4.62,5.31,1.74,1.00,3.77,,,
2015-04-25 18:00,27.6,,,1013.13,121.70,5.30,6.66,1.84,1.00,4.16,,,
2015-04-25 19:00,27.7,,,1012.59,118.60,4.67,5.82,2.25,1.00,3.98,,,
2015-04-25 20:00,27.6,,,1012.23,125.20,4.64,5.64,2.26,1.00,3.64,,,
2015-04-25 21:00,27.6,,,1012.23,127.60,4.58,5.76,1.99,1.00,3.81,,,
2015-04-25 22:00,27.0,,,1012.23,196.50,3.54,4.39,0.82,1.00,2.30,,,
2015-04-25 23:00,27.5,,,1012.71,158.90,5.18,6.00,1.70,1.00,3.95,,,
2015-04-26 00:00,27.5,,,1013.19,158.90,4.87,5.95,1.40,1.00,3.85,,,
2015-04-26 01:00,27.5,,,1013.67,161.20,5.31,6.23,2.62,1.00,4.52,,,
2015-04-26 02:00,27.4,,,1014.21,156.00,4.35,5.72,1.85,1.00,3.63,,,
2015-04-26 03:00,27.3,,,1014.33,154.20,4.33,5.44,1.08,1.00,3.55,,,
2015-04-26 04:00,27.1,,,1013.67,167.40,4.82,5.85,2.53,1.00,4.05,,,
2015-04-26 05:00,27.1,,,1013.13,169.30,4.22,5.41,1.65,1.00,3.55,,,
2015-04-26 06:00,27.1,,,1012.35,172.30,4.77,5.62,2.21,1.00,3.83,,,
2015-04-26 07:00,27.0,,,1012.23,155.20,4.69,5.88,1.76,1.00,3.83,,,
2015-04-26 08:00,27.0,,,1012.35,170.40,4.93,5.74,2.27,1.00,4.03,,,
2015-04-26 09:00,27.0,,,1012.53,155.40,6.15,7.54,2.74,1.00,5.00,,,
2015-04-26 10:00,27.0,,,1012.77,159.30,6.62,8.11,2.43,1.00,5.39,,,
2015-04-26 11:00,27.2,,,1013.37,148.30,5.93,7.28,2.88,1.00,5.01,,,
2015-04-26 12:00,27.4,,,1013.79,157.70,6.33,7.81,2.50,1.00,5.19,,,
2015-04-26 13:00,27.4,,,1014.33,161.90,5.26,6.63,2.62,1.00,4.57,,,
2015-04-26 14:00,27.5,,,1014.69,157.70,6.04,7.49,3.11,1.00,5.05,,,
2015-04-26 15:00,27.5,,,1014.45,154.20,6.31,7.57,2.95,1.00,5.34,,,
2015-04-26 16:00,27.6,,,1013.85,160.10,7.26,8.35,3.00,1.00,5.89,,,
2015-04-26 17:00,27.6,,,1013.37,161.70,8.57,10.78,4.68,1.00,7.29,,,
2015-04-26 18:00,27.8,,,1012.53,160.90,9.17,10.39,5.34,1.00,7.57,,,
2015-04-26 19:00,27.8,,,1012.41,161.60,8.41,9.52,4.05,1.00,7.06,,,
2015-04-26 20:00,28.0,,,1012.17,157.90,6.29,8.14,2.65,1.00,5.23,,,
2015-04-26 21:00,28.1,,,1012.17,149.80,4.76,6.00,1.89,1.00,4.04,,,
2015-04-26 22:00,27.9,,,1012.59,170.30,5.97,6.98,3.13,1.00,4.97,,,
2015-04-26 23:00,27.7,,,1013.19,173.30,5.30,6.27,1.85,1.00,4.30,,,
2015-04-27 00:00,27.6,,,1013.43,164.20,5.62,6.64,2.27,1.00,4.60,,,
2015-04-27 01:00,27.5,,,1013.73,165.40,5.42,6.29,2.73,1.00,4.45,,,
2015-04-27 02:00,27.4,,,1013.85,158.90,4.18,5.22,1.86,1.00,3.62,,,
2015-04-27 03:00,27.2,,,1013.73,144.80,4.33,5.49,1.99,1.00,3.65,,,
2015-04-27 04:00,27.2,,,1013.31,143.60,5.60,6.49,0.79,1.00,4.68,,,
2015-04-27 05:00,27.0,,,1012.41,149.80,5.56,6.63,2.41,1.00,4.48,,,
2015-04-27 06:00,27.0,,,1011.81,150.20,5.47,6.73,2.09,1.00,4.73,,,
2015-04-27 07:00,27.0,,,1011.57,155.20,5.97,7.53,2.36,1.00,4.88,,,
2015-04-27 08:00,27.0,,,1011.69,158.80,5.66,6.72,2.07,1.00,4.67,,,
2015-04-27 09:00,27.0,,,1012.05,153.60,5.71,6.92,2.45,1.00,4.97,,,
2015-04-27 10:00,27.0,,,1012.53,152.30,6.12,7.09,2.44,1.00,5.06,,,
2015-04-27 11:00,27.2,,,1013.01,153.30,6.12,7.15,3.04,1.00,5.22,,,
2015-04-27 12:00,27.5,,,1013.79,151.70,5.99,7.30,2.93,1.00,4.96,,,
2015-04-27 13:00,27.4,,,1013.97,147.00,7.31,8.36,3.05,1.00,5.73,,,
2015-04-27 14:00,27.5,,,1014.09,150.50,7.51,8.42,3.57,1.00,6.14,,,
2015-04-27 15:00,27.6,,,1013.73,151.40,7.59,9.07,3.01,1.00,6.18,,,
2015-04-27 16:00,27.6,,,1013.19,149.10,8.11,9.39,3.95,1.00,6.59,,,
2015-04-27 17:00,27.7,,,1012.65,148.50,7.85,9.23,3.16,1.00,6.40,,,
2015-04-27 18:00,27.7,,,1011.93,150.70,7.47,8.95,3.53,1.00,6.35,,,
2015-04-27 19:00,27.8,,,1011.39,149.60,6.60,8.05,3.30,1.00,5.67,,,
2015-04-27 20:00,28.0,,,1011.27,146.90,6.00,7.35,2.60,1.00,5.22,,,
2015-04-27 21:00,28.0,,,1011.27,150.50,6.48,7.57,2.75,1.00,5.32,,,
2015-04-27 22:00,27.9,,,1011.51,159.20,6.97,8.22,3.26,1.00,5.82,,,
2015-04-27 23:00,27.7,,,1012.23,164.20,6.00,6.83,2.37,1.00,4.84,,,
2015-04-28 00:00,27.6,,,1013.01,161.90,5.37,6.47,1.29,1.00,4.38,,,
2015-04-28 01:00,27.6,,,1013.61,159.50,4.80,6.02,2.02,1.00,4.04,,,
2015-04-28 02:00,27.5,,,1013.91,148.30,4.66,6.08,2.04,1.00,3.90,,,
2015-04-28 03:00,27.5,,,1014.09,141.40,4.70,5.39,1.66,1.00,3.69,,,
2015-04-28 04:00,27.4,,,1013.49,144.20,4.50,5.15,2.18,1.00,3.64,,,
2015-04-28 05:00,27.3,,,1012.77,154.60,4.40,5.81,1.93,1.00,3.68,,,
2015-04-28 06:00,27.2,,,1012.11,153.30,5.65,6.53,2.29,1.00,4.39,,,
2015-04-28 07:00,27.1,,,1011.63,149.10,4.76,5.63,2.10,1.00,3.92,,,
2015-04-28 08:00,27.2,,,1011.39,159.20,6.64,7.80,3.09,1.00,5.59,,,
2015-04-28 09:00,27.1,,,1011.81,154.10,7.07,8.09,2.72,1.00,5.57,,,
2015-04-28 10:00,27.2,,,1012.41,150.10,6.99,7.96,2.29,1.00,5.51,,,
2015-04-28 11:00,27.3,,,1013.19,141.80,7.75,9.12,4.00,1.00,6.49,,,
2015-04-28 12:00,27.5,,,1013.61,140.70,7.72,9.15,3.92,1.00,6.45,,,
2015-04-28 13:00,27.6,,,1014.09,144.20,7.47,8.56,3.63,1.00,6.36,,,
2015-04-28 14:00,27.6,,,1013.91,144.80,7.44,8.46,2.71,1.00,5.97,,,
2015-04-28 15:00,27.7,,,1013.55,146.60,7.74,8.63,3.82,1.00,6.29,,,
2015-04-28 16:00,27.7,,,1013.07,145.60,6.91,8.17,3.92,1.00,5.91,,,
2015-04-28 17:00,27.8,,,1012.71,150.90,6.25,7.83,2.30,1.00,5.04,,,
2015-04-28 18:00,27.8,,,1011.93,154.50,6.37,7.60,2.85,1.00,5.39,,,
2015-04-28 19:00,27.9,,,1011.39,151.60,6.98,8.38,3.26,1.00,5.72,,,
2015-04-28 20:00,27.9,,,1011.27,148.70,7.54,8.70,3.27,1.00,5.72,,,
2015-04-28 21:00,27.9,,,1011.39,149.30,7.23,8.14,3.49,1.00,5.84,,,
2015-04-28 22:00,27.7,,,1011.51,152.20,6.79,7.77,2.70,1.00,5.58,,,
2015-04-28 23:00,27.6,,,1011.93,153.20,6.73,8.35,3.18,1.00,5.47,,,
2015-04-29 00:00,27.6,,,1012.53,156.70,7.86,9.05,3.87,1.00,6.52,,,
2015-04-29 01:00,27.6,,,1013.37,167.00,6.51,7.94,2.17,1.00,5.40,,,
2015-04-29 02:00,27.6,,,1013.91,171.20,6.00,8.07,2.80,1.00,5.18,,,
2015-04-29 03:00,27.5,,,1013.85,167.40,5.64,6.86,2.51,1.00,4.95,,,
2015-04-29 04:00,27.3,,,1013.07,166.70,5.83,7.33,2.57,1.00,4.82,,,
2015-04-29 05:00,27.3,,,1012.35,164.20,6.62,7.83,2.89,1.00,5.49,,,
2015-04-29 06:00,27.2,,,1011.57,153.50,7.40,8.88,2.58,1.00,5.78,,,
2015-04-29 07:00,27.1,,,1011.39,155.90,7.27,8.35,3.04,1.00,6.11,,,
2015-04-29 08:00,27.1,,,1011.69,154.90,6.22,7.57,3.14,1.00,5.19,,,
2015-04-29 09:00,27.1,,,1012.05,155.60,6.43,8.04,2.59,1.00,5.42,,,
2015-04-29 10:00,27.2,,,1012.29,150.30,8.26,9.40,3.36,1.00,6.49,,,
2015-04-29 11:00,27.4,,,1013.01,143.50,8.41,9.23,3.84,1.00,6.98,,,
2015-04-29 12:00,27.5,,,1013.67,136.30,8.00,9.16,3.63,1.00,6.43,,,
2015-04-29 13:00,27.6,,,1014.45,143.70,7.33,8.84,3.45,1.00,6.29,,,
2015-04-29 14:00,27.6,,,1014.69,143.00,9.20,10.51,4.37,1.00,7.80,,,
2015-04-29 15:00,27.7,,,1014.45,150.60,9.47,10.69,5.01,1.00,7.85,,,
2015-04-29 16:00,27.8,,,1013.91,151.90,8.94,10.68,4.17,1.00,7.48,,,
2015-04-29 17:00,27.6,,,1013.37,158.10,10.11,10.98,4.50,1.00,8.05,,,
2015-04-29 18:00,27.7,,,1012.71,152.50,9.92,11.49,4.37,1.00,8.11,,,
2015-04-29 19:00,27.9,,,1012.41,155.70,8.63,10.29,4.19,1.00,7.26,,,
2015-04-29 20:00,27.9,,,1012.29,154.10,8.35,9.62,3.35,1.00,6.58,,,
2015-04-29 21:00,28.0,,,1012.29,152.90,7.82,9.04,3.51,1.00,6.53,,,
2015-04-29 22:00,27.8,,,1012.71,152.00,7.18,9.08,3.65,1.00,6.08,,,
2015-04-29 23:00,27.6,,,1013.31,146.00,6.75,7.86,2.61,1.00,5.34,,,
2015-04-30 00:00,27.5,,,1013.67,146.90,7.09,8.30,2.95,1.00,5.89,,,
2015-04-30 01:00,27.4,,,1014.09,140.20,7.44,8.85,3.37,1.00,5.97,,,
2015-04-30 02:00,27.4,,,1014.39,142.90,8.23,8.96,3.93,1.00,6.49,,,
2015-04-30 03:00,27.4,,,1014.33,140.00,8.58,9.91,3.73,1.00,6.75,,,
2015-04-30 04:00,27.2,,,1013.67,146.50,7.16,8.45,3.22,1.00,5.96,,,
2015-04-30 05:00,27.1,,,1012.89,148.00,8.07,9.21,3.64,1.00,6.56,,,
2015-04-30 06:00,27.1,,,1012.41,149.30,7.85,9.47,4.07,1.00,6.47,,,
2015-04-30 07:00,27.0,,,1012.11,148.80,7.87,8.72,3.38,1.00,5.88,,,
2015-04-30 08:00,27.0,,,1012.23,149.60,7.47,8.14,3.25,1.00,5.78,,,
2015-04-30 09:00,27.1,,,1012.89,146.80,7.03,8.18,3.75,1.00,5.82,,,
2015-04-30 10:00,27.1,,,1013.19,148.70,6.47,7.66,3.26,1.00,5.40,,,
2015-04-30 11:00,27.3,,,1013.61,147.40,7.61,9.35,3.33,1.00,6.57,,,
2015-04-30 12:00,27.5,,,1014.51,157.60,6.85,7.81,3.18,1.00,5.58,,,
2015-04-30 13:00,27.6,,,1014.87,153.60,8.14,9.82,3.42,1.00,6.55,,,
2015-04-30 14:00,27.7,,,1015.17,154.10,8.58,9.81,4.07,1.00,7.20,,,
2015-04-30 15:00,27.8,,,1015.35,162.60,8.68,9.81,4.47,1.00,7.21,,,
2015-04-30 16:00,27.7,,,1015.11,150.60,8.41,10.91,4.73,1.00,7.08,,,
2015-04-30 17:00,27.8,,,1014.57,153.80,8.23,9.23,3.64,1.00,6.59,,,
2015-04-30 18:00,27.7,,,1013.97,152.50,7.74,9.11,4.27,1.00,6.46,,,
2015-04-30 19:00,27.9,,,1013.37,154.30,7.76,9.21,3.46,1.00,6.43,,,
2015-04-30 20:00,27.9,,,1012.83,154.10,6.53,8.28,3.03,1.00,5.53,,,
2015-04-30 21:00,27.9,,,1012.95,149.90,6.45,7.33,3.00,1.00,5.20,,,
2015-04-30 22:00,27.8,,,1013.13,145.70,6.70,7.93,2.81,1.00,5.43,,,
2015-04-30 23:00,27.6,,,1013.61,144.40,6.45,7.23,2.46,1.00,5.18,,,
2015-05-01 00:00,27.5,,,1014.21,136.80,5.87,7.16,2.85,1.00,4.79,,,
2015-05-01 01:00,27.5,,,1014.81,140.40,6.12,7.45,2.21,1.00,5.17,,,